Location: Unspecified
(51.5147°N, 7.4673°E)
Time: 18:48:16
(UTC+01:00)

Explorer 7 - Pass Details

Date: 19 February 2026
Orbit: 430 x 541 km, 50.2° (Epoch: 12 March)

Event Time Altitude Azimuth Distance (km) Brightness Sun altitude
Rises 17:03:25 0° 256° (WSW) 2,451 12.2 6.2°
Reaches altitude 10° 17:05:31 10° 254° (WSW) 1,596 11.5 5.9°
Maximum altitude 17:09:05 68° 171° (S) 509 6.9 5.4°
Drops below altitude 10° 17:12:49 10° 89° (E) 1,664 8.7 4.9°
Sets 17:15:03 0° 86° (E) 2,568 9.6 4.6°
